EXPRESS-AM33

Last updated on Jan. 26, 2020, 4:40 a.m. UTC

1 32478U 08003A   20025.74442441 -.00000287  00000-0  00000+0 0  9991
2 32478   0.0594 236.6622 0000243 205.7090  46.5927  1.00269781 44200
UTC
Height (km)
Latitude
Longitude
Inclination
Orbital Period
UTC large
Height (km)
Speed (km/s)
/
Latitude / Longitude
Inclination (degrees)
Orbital Period (minutes)
Azimuth
Elevation
Range (km)
Doppler Factor
iOS Compass Heading
iOS Angle

Next 30 passes for location: Hong Kong

Rise time Rise Azimuth (degrees) Set time Set Azimuth (degrees) Duration Max altitude (degrees)

No matching passes for this satellites